                ,  0.865,  0.962,  1.058,  1.155,  1.251,  1.348,  1.445,  1.541,  1.638,  1.734,  1.831,  1.928,  2.024,  2.121,  2.217,  2.314,  2.410,  2.507,  2.604,  2.700,  2.797,  2.893,  2.990,  3.087,  3.183,  3.280,  3.376,  3.473,  3.570,  3.666,  3.763,  3.859,  3.956,  4.053,  4.149,  4.246,  4.342,  4.439,  4.536,  4.632,  4.729,  4.825,  4.922,  5.018,  5.115,  5.212,  5.308,  5.405,  5.501,  5.598,  5.695,  5.791
1999/03/11 00:00,  999.0,  999.0,  999.0,  -61.5,  -58.2,  -57.9,  -58.3,  -58.8,  -58.8,  -59.5,  -60.0,  -59.3,  -60.2,  -60.5,  -60.6,  -59.1,  -60.3,  -60.5,  -60.3,  -59.8,  -61.0,  -60.0,  -60.4,  -59.7,  -60.7,  -60.2,  -60.8,  -59.5,  -60.9,  -61.1,  -61.1,  -60.1,  -60.7,  -60.5,  -60.6,  -59.4,  -60.2,  -60.4,  -60.9,  -60.0,  -61.0,  -60.7,  -61.1,  -59.2,  -60.7,  -60.1,  -60.5,  -59.8,  -61.5,  -60.2,  -60.7,  -60.6
1999/03/11 00:10,  999.0,  999.0,  999.0,  -60.1,  -56.9,  -57.8,  -58.1,  -58.2,  -58.3,  -59.2,  -59.9,  -58.9,  -59.6,  -59.7,  -60.2,  -59.0,  -59.4,  -59.6,  -60.5,  -59.5,  -60.5,  -60.4,  -61.0,  -59.8,  -60.6,  -60.3,  -60.8,  -59.5,  -60.5,  -59.9,  -60.7,  -59.7,  -60.6,  -60.4,  -60.7,  -59.9,  -60.6,  -60.2,  -61.0,  -59.8,  -60.5,  -60.7,  -61.2,  -59.6,  -60.7,  -60.1,  -61.2,  -59.7,  -60.9,  -60.1,  -60.2,  -59.8
1999/03/11 00:20,  999.0,  999.0,  999.0,  -61.0,  -58.8,  -58.1,  -58.4,  -58.3,  -58.3,  -59.2,  -59.7,  -59.4,  -59.9,  -59.6,  -60.5,  -59.8,  -60.2,  -60.2,  -60.5,  -59.7,  -60.3,  -60.5,  -60.8,  -60.1,  -60.7,  -60.5,  -60.6,  -59.6,  -60.6,  -60.7,  -60.6,  -60.0,  -60.7,  -60.7,  -61.1,  -60.1,  -60.9,  -60.7,  -61.6,  -60.3,  -60.8,  -60.4,  -60.6,  -59.9,  -60.4,  -60.7,  -60.7,  -59.8,  -60.6,  -60.2,  -60.4,  -60.1
1999/03/11 00:30,  999.0,  999.0,  999.0,  -61.8,  -57.9,  -57.5,  -58.1,  -58.6,  -57.6,  -58.6,  -59.4,  -59.0,  -59.7,  -59.6,  -59.6,  -59.5,  -60.0,  -59.9,  -60.2,  -59.9,  -60.2,  -60.7,  -60.6,  -60.1,  -60.4,  -60.3,  -60.8,  -59.9,  -60.6,  -60.7,  -60.9,  -60.3,  -60.4,  -60.5,  -60.8,  -60.6,  -60.5,  -60.3,  -61.0,  -59.9,  -60.6,  -60.5,  -60.8,  -59.7,  -60.5,  -60.8,  -60.7,  -60.1,  -60.9,  -60.7,  -60.6,  -60.2
1999/03/11 00:40,  999.0,  999.0,  999.0,  -61.2,  -58.7,  -58.9,  -58.5,  -59.1,  -58.5,  -59.6,  -59.8,  -59.5,  -59.8,  -59.8,  -60.1,  -59.5,  -60.2,  -60.4,  -60.7,  -60.2,  -60.0,  -60.4,  -60.7,  -60.1,  -60.5,  -60.5,  -60.8,  -60.4,  -60.6,  -60.2,  -60.8,  -60.1,  -60.5,  -60.7,  -60.6,  -60.2,  -60.7,  -60.4,  -61.4,  -60.2,  -61.1,  -60.3,  -61.1,  -60.1,  -60.2,  -60.9,  -60.9,  -60.4,  -60.6,  -60.7,  -61.0,  -60.6
1999/03/11 00:50,  999.0,  999.0,  999.0,  -61.6,  -58.5,  -58.2,  -58.3,  -58.6,  -58.7,  -59.0,  -59.6,  -59.2,  -60.1,  -60.0,  -60.2,  -59.7,  -60.5,  -60.5,  -60.5,  -60.4,  -60.5,  -60.4,  -61.4,  -60.3,  -60.3,  -60.2,  -60.7,  -60.3,  -60.5,  -60.9,  -60.7,  -60.0,  -60.6,  -60.7,  -60.9,  -60.6,  -61.1,  -60.7,  -61.1,  -60.2,  -60.9,  -60.7,  -61.0,  -59.9,  -60.7,  -60.7,  -61.0,  -60.1,  -60.2,  -60.3,  -60.8,  -60.2
1999/03/11 01:00,  999.0,  999.0,  999.0,  -62.3,  -57.5,  -57.7,  -58.1,  -58.4,  -58.1,  -58.9,  -59.6,  -59.5,  -60.1,  -60.0,  -59.9,  -59.9,  -60.5,  -60.8,  -60.8,  -59.8,  -60.6,  -61.1,  -60.8,  -60.2,  -60.7,  -60.5,  -60.5,  -59.9,  -60.5,  -60.8,  -61.2,  -60.4,  -60.7,  -60.5,  -60.8,  -60.4,  -60.6,  -60.6,  -61.1,  -60.2,  -60.9,  -61.0,  -60.8,  -60.3,  -60.5,  -60.8,  -60.8,  -60.1,  -60.3,  -60.6,  -60.7,  -60.1
1999/03/11 01:10,  999.0,  999.0,  999.0,  999.0,  -57.5,  -58.5,  -58.3,  -58.8,  -57.9,  -58.8,  -59.6,  -59.4,  -60.0,  -60.1,  -60.3,  -59.7,  -60.4,  -60.3,  -61.1,  -59.7,  -60.3,  -60.7,  -60.8,  -59.8,  -60.6,  -60.6,  -61.0,  -59.8,  -60.3,  -60.5,  -60.4,  -60.1,  -60.5,  -60.6,  -60.9,  -59.8,  -60.3,  -60.6,  -61.0,  -59.9,  -60.7,  -60.9,  -61.0,  -60.0,  -60.2,  -60.3,  -60.8,  -60.1,  -60.8,  -60.8,  -60.5,  -60.2
1999/03/11 01:20,  999.0,  999.0,  999.0,  999.0,  -59.1,  -58.4,  -57.9,  -58.6,  -57.8,  -58.5,  -59.6,  -58.9,  -59.3,  -59.9,  -60.1,  -59.6,  -60.6,  -60.6,  -60.8,  -60.2,  -60.6,  -60.6,  -60.8,  -59.9,  -60.2,  -60.4,  -60.7,  -60.5,  -60.5,  -60.7,  -61.0,  -60.3,  -60.8,  -60.5,  -60.6,  -60.3,  -60.8,  -60.8,  -61.1,  -60.3,  -60.7,  -60.6,  -60.6,  -60.3,  -60.6,  -60.9,  -60.7,  -60.3,  -60.5,  -60.6,  -60.6,  -60.0
1999/03/11 01:30,  999.0,  999.0,  999.0,  -61.8,  -58.7,  -58.4,  -58.1,  -58.7,  -57.9,  -59.2,  -59.7,  -59.8,  -60.2,  -59.6,  -60.2,  -59.7,  -60.2,  -60.2,  -59.8,  -59.6,  -59.9,  -60.5,  -60.8,  -60.3,  -60.3,  -60.5,  -60.6,  -60.1,  -60.3,  -60.4,  -60.6,  -60.2,  -60.7,  -60.7,  -61.2,  -60.2,  -60.6,  -60.5,  -61.1,  -59.8,  -60.6,  -60.7,  -61.1,  -59.8,  -60.3,  -60.6,  -61.0,  -59.9,  -60.7,  -60.6,  -60.5,  -60.0
1999/03/11 01:40,  999.0,  999.0,  999.0,  -61.1,  -59.1,  -57.5,  -58.1,  -58.5,  -58.2,  -58.8,  -59.6,  -59.2,  -60.1,  -59.8,  -60.1,  -60.2,  -60.5,  -60.6,  -60.7,  -59.8,  -60.1,  -60.6,  -60.8,  -59.9,  -60.4,  -60.9,  -60.7,  -59.9,  -60.5,  -60.7,  -61.0,  -60.0,  -60.6,  -60.9,  -60.9,  -60.4,  -60.5,  -60.0,  -60.6,  -59.8,  -60.9,  -60.7,  -60.5,  -59.7,  -60.0,  -60.8,  -60.8,  -60.5,  -60.6,  -60.6,  -60.9,  -60.2
1999/03/11 01:50,  999.0,  999.0,  999.0,  -61.2,  -59.3,  -58.4,  -58.2,  -58.6,  -58.2,  -59.3,  -60.0,  -59.8,  -60.2,  -60.0,  -59.8,  -60.0,  -60.8,  -60.2,  -60.5,  -60.1,  -60.5,  -60.7,  -60.8,  -59.7,  -60.2,  -60.7,  -60.7,  -60.1,  -60.6,  -60.3,  -60.9,  -60.5,  -60.7,  -60.5,  -61.1,  -60.2,  -61.0,  -61.0,  -61.3,  -60.0,  -61.0,  -60.9,  -60.9,  -60.1,  -60.5,  -60.8,  -61.2,  -59.8,  -60.9,  -61.0,  -61.2,  -60.2
1999/03/11 02:00,  999.0,  999.0,  999.0,  -60.5,  -58.8,  -57.9,  -58.1,  -58.5,  -58.3,  -59.1,  -59.7,  -59.4,  -59.6,  -59.7,  -60.3,  -59.9,  -60.5,  -60.5,  -60.6,  -60.2,  -60.3,  -60.1,  -60.7,  -60.3,  -60.7,  -60.0,  -60.6,  -60.3,  -60.7,  -60.9,  -61.0,  -60.2,  -60.4,  -60.6,  -61.1,  -60.3,  -60.8,  -60.7,  -60.8,  -60.0,  -60.7,  -60.7,  -60.7,  -60.1,  -60.8,  -61.2,  -60.4,  -60.2,  -60.8,  -60.8,  -60.9,  -60.0
1999/03/11 02:10,  999.0,  999.0,  999.0,  -61.9,  -58.3,  -57.2,  -57.4,  -58.4,  -57.8,  -58.8,  -60.0,  -59.5,  -60.2,  -59.8,  -59.9,  -59.9,  -60.6,  -60.5,  -60.8,  -60.4,  -60.1,  -60.9,  -61.5,  -60.1,  -60.7,  -60.5,  -60.8,  -60.1,  -60.8,  -60.5,  -61.0,  -60.1,  -60.7,  -60.8,  -60.7,  -60.3,  -60.1,  -60.5,  -60.9,  -59.9,  -60.6,  -60.6,  -61.0,  -59.6,  -60.5,  -60.7,  -60.8,  -60.4,  -60.8,  -61.1,  -61.1,  -60.6
1999/03/11 02:20,  999.0,  999.0,  999.0,  -61.1,  -57.5,  -57.3,  -57.8,  -58.6,  -58.0,  -59.2,  -59.6,  -59.5,  -60.3,  -59.5,  -60.0,  -59.5,  -59.7,  -60.2,  -60.9,  -60.2,  -60.5,  -60.5,  -60.5,  -60.2,  -60.3,  -60.8,  -60.8,  -60.3,  -60.3,  -60.5,  -60.5,  -60.2,  -60.5,  -60.8,  -61.0,  -60.4,  -60.4,  -60.6,  -61.1,  -60.1,  -60.5,  -60.3,  -60.7,  -60.0,  -60.4,  -60.6,  -60.9,  -60.2,  -60.4,  -60.3,  -60.9,  -60.3
1999/03/11 02:30,  999.0,  999.0,  999.0,  -62.8,  -57.8,  -57.4,  -57.6,  -58.4,  -58.1,  -59.3,  -59.7,  -59.9,  -60.4,  -59.9,  -59.9,  -59.5,  -60.4,  -60.0,  -60.4,  -59.9,  -60.1,  -60.5,  -60.9,  -59.9,  -60.1,  -60.0,  -60.4,  -60.2,  -59.8,  -60.4,  -60.5,  -59.6,  -60.6,  -60.1,  -60.7,  -60.0,  -60.5,  -60.3,  -60.2,  -59.9,  -60.6,  -60.6,  -60.9,  -60.0,  -60.7,  -60.5,  -60.9,  -60.1,  -60.6,  -60.7,  -60.7,  -60.2
1999/03/11 02:40,  999.0,  999.0,  999.0,  -61.2,  -58.3,  -57.3,  -57.5,  -58.7,  -57.9,  -58.7,  -59.5,  -59.9,  -59.7,  -59.8,  -60.0,  -59.9,  -60.0,  -60.4,  -60.6,  -59.8,  -60.1,  -60.5,  -60.8,  -60.0,  -60.2,  -60.6,  -60.4,  -60.3,  -60.5,  -60.7,  -60.5,  -59.9,  -60.3,  -60.4,  -60.7,  -60.6,  -60.1,  -60.8,  -60.6,  -60.1,  -60.7,  -60.5,  -60.4,  -60.3,  -60.5,  -60.9,  -60.5,  -60.1,  -60.6,  -60.7,  -60.8,  -60.2
1999/03/11 02:50,  999.0,  999.0,  999.0,  -60.0,  -58.3,  -57.6,  -57.7,  -58.3,  -58.1,  -59.2,  -59.5,  -59.5,  -59.8,  -59.8,  -60.4,  -59.7,  -60.0,  -60.1,  -60.6,  -59.9,  -60.5,  -60.6,  -61.0,  -60.2,  -60.4,  -60.2,  -60.8,  -60.0,  -60.7,  -60.4,  -61.1,  -60.3,  -60.0,  -61.1,  -60.8,  -60.0,  -60.5,  -60.7,  -61.0,  -60.1,  -60.4,  -60.7,  -60.6,  -60.4,  -60.7,  -60.5,  -61.0,  -60.2,  -60.5,  -60.4,  -60.7,  -60.3
1999/03/11 03:00,  999.0,  999.0,  999.0,  -60.3,  -58.5,  -57.9,  -58.0,  -58.3,  -58.1,  -59.4,  -59.6,  -59.6,  -59.9,  -59.9,  -59.7,  -60.2,  -60.4,  -60.5,  -60.8,  -59.8,  -60.5,  -60.6,  -60.8,  -60.2,  -60.6,  -60.6,  -60.4,  -60.2,  -60.1,  -60.3,  -60.3,  -60.1,  -60.4,  -60.9,  -60.4,  -60.3,  -60.5,  -60.6,  -61.0,  -60.3,  -60.8,  -60.8,  -60.9,  -60.3,  -60.7,  -61.0,  -61.2,  -60.2,  -60.2,  -60.2,  -60.6,  -60.3
1999/03/11 03:10,  999.0,  999.0,  999.0,  -60.6,  -58.2,  -57.4,  -58.0,  -58.7,  -58.0,  -59.1,  -59.5,  -59.6,  -59.9,  -59.8,  -60.1,  -59.7,  -59.9,  -60.5,  -60.3,  -60.0,  -59.5,  -60.3,  -60.8,  -60.2,  -60.3,  -60.5,  -61.1,  -60.4,  -60.2,  -60.5,  -60.5,  -60.2,  -60.4,  -60.6,  -61.3,  -60.6,  -60.5,  -60.7,  -61.1,  -60.2,  -60.4,  -60.4,  -60.8,  -60.2,  -60.3,  -61.3,  -60.4,  -60.2,  -60.0,  -60.5,  -60.7,  -60.8
1999/03/11 03:20,  999.0,  999.0,  999.0,  -60.1,  -58.6,  -58.3,  -57.6,  -58.5,  -57.9,  -59.1,  -59.5,  -59.3,  -60.0,  -59.7,  -59.8,  -59.3,  -59.9,  -60.9,  -60.6,  -59.9,  -60.0,  -60.5,  -60.6,  -60.6,  -60.6,  -60.9,  -60.7,  -60.3,  -60.3,  -60.6,  -60.8,  -60.5,  -60.6,  -60.8,  -60.9,  -60.4,  -60.7,  -60.8,  -61.1,  -60.0,  -60.8,  -60.7,  -60.7,  -60.2,  -60.4,  -61.3,  -60.9,  -60.3,  -60.6,  -60.6,  -60.5,  -60.6
1999/03/11 03:30,  999.0,  999.0,  999.0,  -61.0,  -58.6,  -57.9,  -57.6,  -58.5,  -57.8,  -58.4,  -59.4,  -59.6,  -60.1,  -59.3,  -60.2,  -59.9,  -60.4,  -60.0,  -60.6,  -60.2,  -60.3,  -60.5,  -60.6,  -60.0,  -60.3,  -60.6,  -60.5,  -60.3,  -60.6,  -60.9,  -60.5,  -60.2,  -60.5,  -60.4,  -60.7,  -60.5,  -60.2,  -60.4,  -61.4,  -60.2,  -60.6,  -60.9,  -60.3,  -60.1,  -60.4,  -60.5,  -60.7,  -60.3,  -60.6,  -60.7,  -60.7,  -60.2
1999/03/11 03:40,  999.0,  999.0,  999.0,  -61.7,  -58.1,  -57.9,  -57.6,  -58.2,  -57.8,  -59.0,  -59.7,  -59.5,  -60.0,  -59.9,  -60.2,  -59.9,  -60.1,  -60.2,  -60.2,  -60.2,  -60.3,  -60.5,  -60.8,  -60.2,  -60.5,  -60.3,  -60.5,  -60.2,  -59.7,  -60.8,  -60.4,  -60.0,  -60.1,  -60.8,  -60.4,  -60.3,  -60.4,  -60.5,  -61.0,  -60.4,  -60.5,  -60.5,  -60.6,  -60.3,  -60.5,  -61.0,  -60.9,  -60.1,  -60.5,  -61.0,  -61.0,  -60.2
1999/03/11 03:50,  999.0,  999.0,  999.0,  -60.0,  -58.4,  -57.1,  -57.3,  -58.2,  -57.7,  -58.5,  -59.6,  -59.3,  -59.8,  -59.7,  -59.7,  -59.5,  -59.9,  -59.7,  -60.7,  -60.1,  -60.2,  -60.5,  -60.8,  -60.7,  -60.5,  -60.7,  -60.4,  -60.0,  -60.2,  -60.9,  -60.9,  -60.5,  -60.5,  -60.6,  -60.7,  -60.3,  -60.6,  -60.4,  -61.1,  -60.0,  -60.5,  -60.5,  -60.9,  -60.2,  -60.3,  -60.8,  -60.9,  -60.2,  -60.6,  -60.7,  -60.8,  -60.1
1999/03/11 04:00,  999.0,  999.0,  999.0,  -60.5,  -58.0,  -57.9,  -57.5,  -58.5,  -57.7,  -58.6,  -58.9,  -57.5,  -58.3,  -59.8,  -59.8,  -59.2,  -59.8,  -60.2,  -60.2,  -60.1,  -60.4,  -60.7,  -60.5,  -59.9,  -60.7,  -60.8,  -61.0,  -60.2,  -60.2,  -61.1,  -60.7,  -60.1,  -60.3,  -60.9,  -60.8,  -60.6,  -60.2,  -60.8,  -60.8,  -60.3,  -60.6,  -60.5,  -60.7,  -60.1,  -60.5,  -60.6,  -61.1,  -60.1,  -60.4,  -60.5,  -60.7,  -60.2
1999/03/11 04:10,  999.0,  999.0,  999.0,  -60.3,  -56.9,  -57.2,  -57.2,  -58.3,  -57.5,  -58.7,  -59.0,  -59.2,  -59.6,  -59.7,  -60.1,  -59.7,  -60.1,  -60.0,  -60.5,  -60.3,  -60.0,  -60.7,  -60.6,  -59.8,  -60.2,  -60.5,  -60.7,  -59.9,  -60.2,  -60.7,  -60.7,  -60.0,  -60.4,  -60.6,  -60.7,  -60.6,  -60.4,  -60.9,  -60.5,  -60.1,  -60.3,  -60.6,  -60.8,  -59.9,  -60.5,  -60.6,  -61.0,  -60.4,  -60.7,  -60.4,  -60.5,  -60.1
1999/03/11 04:20,  999.0,  999.0,  999.0,  -60.8,  -57.6,  -58.2,  -57.7,  -58.5,  -57.8,  -59.0,  -59.0,  -59.1,  -59.3,  -59.7,  -60.0,  -59.6,  -59.8,  -60.1,  -60.0,  -59.9,  -60.4,  -60.4,  -60.6,  -60.1,  -60.3,  -60.5,  -60.6,  -60.0,  -60.4,  -60.8,  -60.8,  -60.2,  -60.3,  -60.5,  -60.3,  -59.9,  -60.4,  -60.7,  -60.9,  -60.4,  -60.3,  -60.7,  -60.6,  -59.9,  -60.1,  -60.5,  -60.5,  -59.7,  -60.4,  -60.4,  -60.7,  -60.4
1999/03/11 04:30,  999.0,  999.0,  999.0,  -60.9,  -59.3,  -57.4,  -57.6,  -58.8,  -57.4,  -57.8,  -58.4,  -58.7,  -59.5,  -59.4,  -59.7,  -59.3,  -60.0,  -59.9,  -59.7,  -59.5,  -60.5,  -60.0,  -60.7,  -59.6,  -60.4,  -60.6,  -60.2,  -60.0,  -60.0,  -60.4,  -60.4,  -60.3,  -60.2,  -60.1,  -60.9,  -60.2,  -60.3,  -60.2,  -60.5,  -59.9,  -60.4,  -60.3,  -60.5,  -59.9,  -60.2,  -60.5,  -60.4,  -59.9,  -60.2,  -60.4,  -60.6,  -60.3
1999/03/11 04:40,  999.0,  999.0,  999.0,  -61.2,  -57.6,  -57.3,  -57.4,  -58.5,  -57.7,  -58.4,  -58.7,  -59.2,  -59.8,  -59.7,  -60.1,  -59.5,  -60.0,  -60.0,  -60.6,  -59.9,  -60.2,  -60.3,  -60.5,  -60.3,  -60.8,  -60.7,  -60.4,  -60.1,  -60.5,  -60.7,  -60.9,  -60.0,  -60.3,  -60.6,  -61.2,  -60.3,  -60.4,  -60.2,  -60.8,  -60.1,  -60.5,  -60.9,  -60.8,  -60.0,  -60.5,  -60.6,  -61.1,  -59.9,  -60.7,  -60.5,  -60.8,  -60.0
1999/03/11 04:50,  999.0,  999.0,  999.0,  -60.9,  -57.4,  -57.5,  -57.6,  -58.3,  -57.5,  -58.3,  -59.1,  -59.2,  -60.0,  -59.5,  -59.7,  -59.5,  -60.1,  -60.3,  -60.0,  -60.1,  -60.2,  -60.6,  -60.2,  -60.4,  -60.3,  -60.2,  -60.5,  -60.3,  -60.2,  -60.3,  -60.6,  -60.4,  -60.1,  -60.6,  -60.8,  -60.7,  -60.4,  -60.7,  -61.0,  -60.1,  -60.6,  -60.9,  -61.0,  -59.9,  -59.9,  -60.5,  -60.7,  -60.4,  -60.2,  -60.1,  -60.7,  -60.2
1999/03/11 05:00,  999.0,  999.0,  999.0,  -60.2,  -58.0,  -58.2,  -58.0,  -58.2,  -57.7,  -58.6,  -59.2,  -59.0,  -59.7,  -60.2,  -59.8,  -59.4,  -59.7,  -60.1,  -60.2,  -59.8,  -59.8,  -60.3,  -60.4,  -59.7,  -59.9,  -60.4,  -60.7,  -60.0,  -60.3,  -60.6,  -60.8,  -60.3,  -60.3,  -60.5,  -60.5,  -60.1,  -60.0,  -60.3,  -61.1,  -60.2,  -60.7,  -60.9,  -60.6,  -60.1,  -60.5,  -60.6,  -60.5,  -59.9,  -60.5,  -60.6,  -60.4,  -60.0
1999/03/11 05:10,  999.0,  999.0,  999.0,  -60.7,  -57.8,  -57.9,  -57.7,  -58.5,  -57.4,  -58.3,  -58.4,  -59.2,  -59.8,  -59.7,  -59.9,  -59.2,  -59.8,  -60.0,  -60.0,  -59.6,  -60.3,  -60.6,  -60.8,  -60.0,  -60.1,  -59.9,  -60.6,  -60.4,  -59.9,  -60.4,  -60.5,  -60.2,  -60.3,  -60.8,  -60.9,  -60.1,  -60.6,  -60.5,  -60.8,  -60.1,  -60.5,  -60.6,  -60.5,  -60.0,  -60.3,  -60.9,  -60.5,  -60.4,  -60.5,  -60.8,  -60.9,  -60.3
1999/03/11 05:20,  999.0,  999.0,  999.0,  -60.3,  -56.7,  -58.1,  -57.6,  -58.5,  -57.8,  -57.3,  -59.2,  -58.5,  -60.4,  -59.8,  -60.1,  -59.5,  -59.6,  -59.5,  -60.0,  -59.3,  -60.2,  -60.2,  -60.5,  -59.5,  -60.2,  -60.6,  -60.5,  -59.9,  -60.1,  -60.8,  -60.5,  -60.3,  -60.3,  -61.0,  -60.9,  -60.0,  -59.9,  -60.3,  -60.8,  -60.1,  -60.4,  -60.6,  -60.7,  -60.1,  -59.9,  -60.7,  -60.5,  -60.4,  -60.3,  -60.4,  -61.0,  -59.9
1999/03/11 05:30,  999.0,  999.0,  999.0,  -61.4,  -57.8,  -57.7,  -57.9,  -58.6,  -57.9,  -58.6,  -59.1,  -59.3,  -60.0,  -59.7,  -60.0,  -59.8,  -59.1,  -60.0,  -60.0,  -59.5,  -60.3,  -60.6,  -60.5,  -60.1,  -60.3,  -60.4,  -60.5,  -59.5,  -60.4,  -60.5,  -60.8,  -59.8,  -60.9,  -60.2,  -61.0,  -60.2,  -60.3,  -60.6,  -61.0,  -60.2,  -60.7,  -60.8,  -60.3,  -60.0,  -60.1,  -60.1,  -60.5,  -60.0,  -60.4,  -60.3,  -60.7,  -59.7
1999/03/11 05:40,  999.0,  999.0,  999.0,  999.0,  -58.6,  -57.7,  -57.7,  -58.5,  -57.8,  -58.9,  -59.0,  -59.0,  -59.5,  -60.0,  -60.4,  -58.6,  -59.4,  -59.9,  -59.8,  -59.4,  -60.1,  -60.6,  -61.0,  -59.7,  -60.5,  -60.4,  -60.5,  -59.7,  -60.1,  -60.6,  -60.3,  -59.8,  -60.6,  -60.7,  -60.4,  -60.1,  -60.2,  -60.0,  -60.6,  -59.8,  -60.6,  -60.7,  -60.0,  -60.0,  -60.1,  -60.2,  -60.3,  -59.8,  -60.2,  -60.3,  -60.9,  -59.8
1999/03/11 05:50,  999.0,  999.0,  999.0,  -61.9,  -57.5,  -57.5,  -57.7,  -58.3,  -56.7,  -58.1,  -59.0,  -58.9,  -59.8,  -59.9,  -60.0,  -59.2,  -59.0,  -60.0,  -59.5,  -59.6,  -60.1,  -60.2,  -60.6,  -59.9,  -60.3,  -60.6,  -60.6,  -59.9,  -60.7,  -60.5,  -60.6,  -60.0,  -60.0,  -60.5,  -60.5,  -60.2,  -60.4,  -60.9,  -61.1,  -60.1,  -60.7,  -60.2,  -61.0,  -59.8,  -60.4,  -60.6,  -60.6,  -60.3,  -60.4,  -60.5,  -61.1,  -60.1
1999/03/11 06:00,  999.0,  999.0,  999.0,  -60.3,  -57.5,  -56.8,  -57.6,  -58.6,  -57.6,  -58.5,  -58.6,  -58.6,  -59.5,  -59.8,  -59.1,  -59.0,  -59.3,  -60.3,  -59.9,  -59.8,  -60.5,  -60.2,  -61.0,  -60.1,  -60.5,  -60.3,  -60.7,  -59.8,  -60.3,  -60.4,  -60.2,  -60.2,  -60.4,  -60.1,  -60.6,  -60.7,  -60.4,  -60.3,  -61.0,  -60.0,  -60.5,  -60.4,  -60.5,  -59.9,  -60.5,  -60.5,  -60.6,  -60.0,  -60.7,  -60.3,  -60.3,  -60.0
1999/03/11 06:10,  999.0,  999.0,  999.0,  -60.0,  -56.9,  -56.6,  -57.5,  -57.9,  -56.1,  -57.0,  -58.7,  -59.0,  -59.7,  -59.9,  -60.1,  -59.3,  -59.7,  -60.1,  -60.4,  -59.7,  -60.4,  -61.0,  -60.9,  -59.8,  -60.6,  -60.3,  -60.5,  -59.9,  -60.7,  -60.4,  -60.6,  -59.8,  -60.1,  -60.5,  -60.1,  -59.8,  -60.3,  -60.5,  -60.9,  -60.0,  -60.8,  -60.2,  -60.8,  -60.0,  -60.3,  -60.2,  -60.9,  -60.3,  -60.7,  -60.7,  -60.6,  -59.9
1999/03/11 06:20,  999.0,  999.0,  999.0,  -58.6,  -56.0,  -56.9,  -57.5,  -58.1,  -56.4,  -57.3,  -58.9,  -59.0,  -60.0,  -59.6,  -60.0,  -59.4,  -60.2,  -60.2,  -60.3,  -60.0,  -60.3,  -60.5,  -60.6,  -60.1,  -60.2,  -60.4,  -60.5,  -59.7,  -60.1,  -60.5,  -60.7,  -60.4,  -60.0,  -60.2,  -60.7,  -60.0,  -60.2,  -60.6,  -61.0,  -60.0,  -60.5,  -60.3,  -60.4,  -59.7,  -60.4,  -60.6,  -61.4,  -59.9,  -60.2,  -60.3,  -61.0,  -60.6
1999/03/11 06:30,  999.0,  999.0,  999.0,  -57.6,  -57.4,  -56.9,  -57.4,  -56.0,  -53.9,  -56.7,  -58.6,  -58.4,  -58.8,  -59.4,  -60.4,  -59.4,  -59.8,  -60.6,  -59.9,  -59.5,  -59.9,  -60.7,  -60.9,  -59.8,  -60.1,  -60.9,  -60.3,  -60.1,  -59.8,  -60.5,  -60.7,  -60.1,  -60.1,  -60.1,  -60.6,  -60.6,  -59.9,  -60.3,  -60.8,  -60.3,  -60.8,  -60.2,  -60.4,  -60.0,  -60.2,  -60.3,  -60.7,  -59.9,  -60.0,  -59.9,  -60.5,  -60.1
1999/03/11 06:40,  999.0,  999.0,  999.0,  -59.6,  -57.6,  -57.5,  -57.5,  -57.4,  -55.8,  -58.1,  -58.9,  -59.0,  -59.8,  -60.1,  -60.4,  -59.3,  -60.0,  -60.6,  -60.2,  -59.7,  -60.0,  -60.7,  -61.1,  -59.8,  -60.4,  -60.3,  -60.5,  -60.0,  -60.4,  -60.8,  -60.5,  -60.1,  -60.3,  -60.8,  -60.6,  -60.0,  -60.4,  -60.4,  -61.1,  -60.5,  -60.6,  -60.4,  -60.5,  -60.0,  -60.7,  -60.4,  -60.7,  -60.2,  -60.3,  -60.3,  -60.9,  -60.4
1999/03/11 06:50,  999.0,  999.0,  999.0,  -60.0,  -57.7,  -57.7,  -57.7,  -57.8,  -57.1,  -57.8,  -59.5,  -59.4,  -60.2,  -60.3,  -60.2,  -59.5,  -60.1,  -60.1,  -60.4,  -59.5,  -59.8,  -60.4,  -60.2,  -59.9,  -60.3,  -60.1,  -60.6,  -59.6,  -60.0,  -60.0,  -60.7,  -60.0,  -60.2,  -60.6,  -60.7,  -59.8,  -60.3,  -60.3,  -61.0,  -59.7,  -60.5,  -60.3,  -60.5,  -60.1,  -60.2,  -60.8,  -60.7,  -59.8,  -60.6,  -60.4,  -60.9,  -60.3
1999/03/11 07:00,  999.0,  999.0,  999.0,  -59.7,  -56.8,  -57.2,  -57.6,  -58.0,  -56.8,  -57.3,  -59.0,  -58.5,  -60.2,  -60.0,  -60.0,  -59.3,  -59.9,  -60.1,  -60.2,  -59.6,  -60.2,  -60.5,  -60.7,  -59.9,  -60.2,  -60.3,  -60.7,  -59.7,  -60.6,  -60.9,  -60.8,  -59.7,  -60.4,  -60.4,  -60.6,  -59.9,  -60.5,  -60.5,  -61.1,  -59.6,  -60.3,  -60.4,  -60.2,  -59.6,  -60.7,  -60.3,  -60.8,  -60.0,  -60.3,  -60.5,  -60.8,  -59.9
1999/03/11 07:10,  999.0,  999.0,  999.0,  -60.9,  -56.8,  -57.6,  -58.0,  -58.1,  -57.7,  -58.9,  -59.4,  -59.5,  -60.1,  -60.8,  -60.8,  -59.6,  -60.4,  -60.4,  -60.4,  -59.4,  -60.6,  -61.1,  -61.7,  -60.6,  -60.6,  -60.9,  -61.0,  -59.8,  -60.1,  -60.8,  -61.0,  -60.1,  -59.7,  -60.6,  -61.1,  -60.1,  -60.5,  -60.3,  -61.2,  -60.2,  -60.4,  -60.2,  -60.7,  -60.4,  -60.7,  -60.1,  -60.8,  -60.6,  -60.4,  -60.3,  -60.7,  -59.9
1999/03/11 07:20,  999.0,  999.0,  999.0,  -59.9,  -57.9,  -57.9,  -58.4,  -58.2,  -57.7,  -58.1,  -59.2,  -59.2,  -59.4,  -60.4,  -60.0,  -59.5,  -59.9,  -60.1,  -60.3,  -60.1,  -60.1,  -60.2,  -60.6,  -60.0,  -60.7,  -60.6,  -59.9,  -59.9,  -59.8,  -60.3,  -60.6,  -59.9,  -59.9,  -60.3,  -60.4,  -60.2,  -60.0,  -60.2,  -61.0,  -59.5,  -60.8,  -60.7,  -60.8,  -59.8,  -59.9,  -60.7,  -61.1,  -60.3,  -60.5,  -60.0,  -60.6,  -59.8
1999/03/11 07:30,  999.0,  999.0,  999.0,  -60.2,  -58.1,  -57.7,  -57.9,  -58.6,  -56.9,  -58.5,  -59.2,  -59.4,  -59.6,  -60.3,  -60.3,  -59.9,  -60.2,  -60.3,  -60.4,  -59.7,  -60.3,  -60.8,  -60.8,  -60.1,  -60.7,  -60.5,  -60.9,  -60.2,  -60.7,  -60.5,  -60.9,  -60.2,  -60.4,  -60.4,  -61.3,  -60.0,  -60.1,  -60.3,  -61.1,  -60.3,  -60.9,  -60.5,  -60.7,  -60.1,  -60.4,  -60.5,  -60.8,  -60.3,  -60.6,  -60.6,  -60.6,  -59.9
1999/03/11 07:40,  999.0,  999.0,  999.0,  -59.7,  -58.1,  -57.2,  -57.5,  -57.9,  -57.3,  -58.8,  -59.1,  -59.2,  -60.0,  -60.3,  -60.2,  -59.5,  -60.0,  -60.6,  -60.6,  -59.9,  -60.4,  -60.6,  -60.7,  -59.8,  -60.1,  -60.1,  -60.9,  -60.1,  -60.2,  -60.7,  -60.6,  -60.1,  -60.1,  -60.5,  -60.9,  -60.2,  -60.4,  -60.4,  -60.9,  -59.9,  -60.4,  -60.6,  -60.8,  -60.1,  -60.5,  -60.5,  -60.8,  -60.1,  -60.4,  -60.2,  -60.4,  -60.3
1999/03/11 07:50,  999.0,  999.0,  999.0,  -61.0,  -58.4,  -57.7,  -57.7,  -58.7,  -57.1,  -58.4,  -59.1,  -59.4,  -60.0,  -59.9,  -59.7,  -59.9,  -60.1,  -60.2,  -60.1,  -60.2,  -59.9,  -60.4,  -60.7,  -60.3,  -60.4,  -60.8,  -60.5,  -60.1,  -60.2,  -60.5,  -60.9,  -60.3,  -60.4,  -60.6,  -60.8,  -60.2,  -60.6,  -60.2,  -61.3,  -60.3,  -60.9,  -60.5,  -60.8,  -59.7,  -60.2,  -60.5,  -60.7,  -60.2,  -60.5,  -60.6,  -60.5,  -60.1
1999/03/11 08:00,  999.0,  999.0,  999.0,  -59.5,  -57.2,  -57.3,  -57.5,  -58.5,  -57.2,  -58.6,  -59.5,  -59.1,  -59.9,  -60.4,  -60.5,  -60.1,  -60.2,  -60.5,  -60.8,  -60.2,  -60.7,  -60.6,  -61.3,  -60.2,  -60.7,  -60.6,  -60.7,  -60.3,  -60.5,  -60.6,  -60.8,  -60.2,  -60.7,  -60.5,  -60.5,  -60.5,  -60.6,  -60.8,  -60.8,  -60.7,  -60.2,  -60.7,  -60.7,  -60.4,  -60.8,  -60.8,  -60.7,  -60.1,  -60.5,  -61.1,  -60.8,  -60.3
1999/03/11 08:10,  999.0,  999.0,  999.0,  -57.6,  -58.3,  -57.0,  -57.2,  -57.7,  -57.3,  -57.5,  -59.5,  -59.3,  -60.0,  -59.0,  -59.5,  -59.5,  -60.1,  -59.9,  -60.1,  -60.1,  -60.5,  -60.3,  -61.1,  -60.2,  -60.2,  -60.0,  -60.4,  -60.1,  -60.1,  -60.5,  -60.9,  -59.9,  -60.6,  -60.4,  -60.8,  -60.0,  -60.0,  -60.4,  -60.8,  -60.0,  -60.9,  -60.7,  -60.8,  -60.1,  -60.5,  -60.3,  -60.6,  -60.1,  -60.5,  -60.2,  -60.5,  -60.1
1999/03/11 08:20,  999.0,  999.0,  999.0,  -59.9,  -58.2,  -57.8,  -59.0,  -58.8,  -58.9,  -59.5,  -60.2,  -59.3,  -60.0,  -59.8,  -60.4,  -60.1,  -60.5,  -61.0,  -61.0,  -60.6,  -60.6,  -61.2,  -61.0,  -60.3,  -60.7,  -61.3,  -61.0,  -60.3,  -60.5,  -60.7,  -60.8,  -60.6,  -61.0,  -61.3,  -61.2,  -60.7,  -61.0,  -60.8,  -61.6,  -60.3,  -61.2,  -61.2,  -61.3,  -60.6,  -60.3,  -61.1,  -61.1,  -60.5,  -61.2,  -60.8,  -60.7,  -60.3
1999/03/11 08:30,  999.0,  999.0,  999.0,  -61.6,  -58.8,  -57.8,  -58.1,  -58.4,  -58.0,  -59.3,  -59.6,  -59.4,  -59.4,  -60.0,  -60.0,  -59.7,  -60.2,  -60.1,  -60.5,  -60.1,  -59.9,  -60.8,  -60.6,  -60.1,  -60.0,  -60.4,  -60.6,  -59.8,  -60.5,  -61.0,  -60.7,  -60.1,  -60.5,  -60.2,  -60.6,  -60.6,  -60.6,  -60.7,  -60.9,  -60.4,  -60.6,  -60.7,  -60.5,  -60.0,  -60.2,  -60.8,  -60.4,  -60.4,  -60.6,  -60.4,  -60.8,  -60.6
1999/03/11 08:40,  999.0,  999.0,  999.0,  -56.7,  -58.6,  -56.6,  -57.4,  -57.8,  -57.4,  -58.8,  -58.8,  -59.0,  -59.1,  -59.2,  -59.5,  -59.4,  -59.5,  -59.8,  -60.1,  -59.5,  -59.5,  -59.7,  -60.1,  -59.9,  -59.8,  -59.5,  -60.3,  -59.4,  -59.5,  -59.7,  -60.3,  -60.0,  -59.6,  -59.9,  -60.1,  -60.0,  -60.0,  -59.9,  -60.1,  -59.3,  -60.4,  -59.9,  -59.5,  -59.4,  -59.4,  -60.1,  -60.4,  -59.7,  -59.9,  -59.8,  -59.8,  -59.6
1999/03/11 08:50,  999.0,  999.0,  999.0,  -63.1,  -60.4,  -56.4,  -56.9,  -58.2,  -56.9,  -58.3,  -59.6,  -59.3,  -59.4,  -59.9,  -59.9,  -59.6,  -60.5,  -60.3,  -60.7,  -60.0,  -60.2,  -60.3,  -60.7,  -60.0,  -60.4,  -60.5,  -60.2,  -59.6,  -60.2,  -60.3,  -60.6,  -59.3,  -60.3,  -60.7,  -60.3,  -60.1,  -60.2,  -60.0,  -60.7,  -59.7,  -60.6,  -60.3,  -60.4,  -59.7,  -60.4,  -60.1,  -60.5,  -60.0,  -60.0,  -60.8,  -59.9,  -60.0